This demonstration page uses our WeatherBlox Daily Observations layout. Learn more.

Left ArrowRight Arrow

Hourly Observations for June 9, 2018

Temp ( °F °C ) Dew Point ( °F °C ) Humidity (%) Winds ( mph kmh ) Pressure ( in mb ) Visibility ( mi km ) Precip ( " mm )
12:54 am 00:54 Clear 78 25.6 66 18.9 67 67 S 9 15 29.91 1013 10 16 0.00 0.00
1:54 am 01:54 Clear 77 25 66 18.9 69 69 S 9 15 29.90 1012 10 16 0.00 0.00
2:54 am 02:54 Clear 77 25 67 19.4 71 71 SSW 15 24 29.88 1012 10 16 0.00 0.00
3:19 am 03:19 Mostly Clear with Nearby Thunderstorms 78 25.6 65 18.3 64 64 WNW 46 74 29.94 1014 9 14 0.00 0.00
3:25 am 03:25 Mostly Cloudy with Nearby Thunderstorms 71 21.7 61 16.1 71 71 NNW 53 85 30.00 1016 4 6 0.00 0.03
3:34 am 03:34 Mostly Cloudy with Thunderstorms 67 19.4 62 16.7 84 84 NNW 39 63 30.03 1017 4 6 0.00 0.03
3:47 am 03:47 Cloudy with Strong Thunderstorms 65 18.3 62 16.7 90 90 NNW 33 54 30.03 1017 2 3 0.04 1.02
3:54 am 03:54 Cloudy with Thunderstorms 65 18.3 62 16.7 90 90 NNW 26 43 30.02 1017 3 5 0.11 2.79
4:25 am 04:25 Cloudy with Nearby Thunderstorms 66 18.9 62 16.7 87 87 N 21 33 30.00 1016 6 10 0.14 3.56
4:54 am 04:54 Mostly Cloudy with Nearby Thunderstorms 67 19.4 62 16.7 84 84 N 24 39 29.98 1015 10 16 0.15 3.81
5:21 am 05:21 Mostly Cloudy with Thunderstorms 68 20 61 16.1 78 78 N 18 30 30.00 1016 9 14 0.01 0.25
5:42 am 05:42 Cloudy with Nearby Thunderstorms 68 20 61 16.1 78 78 SSE 23 37 29.94 1014 7 11 0.03 0.76
5:52 am 05:52 Cloudy with Nearby Thunderstorms 70 21 61 16 73 73 S 18 30 29.91 1013 9 14 0.04 1.02
5:54 am 05:54 Mostly Cloudy with Nearby Thunderstorms 69 20.6 61 16.1 76 76 WNW 18 30 29.96 1015 9 14 0.04 1.02
6:03 am 06:03 Mostly Cloudy with Nearby Thunderstorms 69 20.6 61 16.1 76 76 S 7 11 29.94 1014 10 16 0.00 0.03
6:18 am 06:18 Mostly Sunny 72 22.2 60 15.6 66 66 SSW 8 13 29.94 1014 10 16 0.00 0.03
6:54 am 06:54 Sunny 67 19.4 62 16.7 84 84 S 10 17 29.91 1013 10 16 0.00 0.03
7:54 am 07:54 Sunny 69 20.6 63 17.2 81 81 SSE 12 19 29.85 1011 10 16 0.00 0.00
8:54 am 08:54 Sunny 80 26.7 61 16.1 52 52 SSW 9 15 29.83 1010 10 16 0.00 0.00
9:54 am 09:54 Sunny 83 28.3 62 16.7 49 49 SSW 20 31 29.79 1009 10 16 0.00 0.00
10:54 am 10:54 Sunny 85 29.4 65 18.3 51 51 SSW 17 28 29.82 1010 10 16 0.00 0.00
11:54 am 11:54 Sunny 85 29.4 68 20 57 57 SW 15 24 29.86 1011 10 16 0.00 0.00
12:54 pm 12:54 Mostly Sunny 88 31.1 68 20 52 52 SW 16 26 29.85 1011 10 16 0.00 0.00
1:54 pm 13:54 Sunny 88 31.1 68 20 52 52 SSW 9 15 29.85 1011 10 16 0.00 0.00
2:54 pm 14:54 Sunny 90 32.2 68 20 48 48 W 7 11 29.83 1010 10 16 0.00 0.00
3:54 pm 15:54 Sunny 91 32.8 69 20.6 49 49 VRB 3 6 29.84 1010 10 16 0.00 0.00
4:54 pm 16:54 Partly Cloudy 90 32.2 70 21.1 52 52 VRB 3 6 29.82 1010 10 16 0.00 0.00
5:54 pm 17:54 Sunny 90 32.2 69 20.6 50 50 Calm 29.81 1010 10 16 0.00 0.00
6:54 pm 18:54 Sunny 89 31.7 72 22.2 57 57 NNE 7 11 29.79 1009 10 16 0.00 0.00
7:54 pm 19:54 Sunny 87 30.6 72 22.2 61 61 NE 6 9 29.78 1008 10 16 0.00 0.00
8:54 pm 20:54 Sunny 83 28.3 70 21.1 65 65 E 5 7 29.77 1008 10 16 0.00 0.00
9:54 pm 21:54 Clear 83 28.3 70 21.1 65 65 E 5 7 29.78 1008 10 16 0.00 0.00
10:54 pm 22:54 Clear 83 28.3 71 21.7 67 67 ESE 5 7 29.78 1008 10 16 0.00 0.00
11:54 pm 23:54 Clear 80 26.7 69 20.6 69 69 SSE 7 11 29.75 1008 10 16 0.00 0.00

Powered by AerisWeather